SXS7GB EDLW-LTBJ

Flight info

Callsign SXS7GB
Flight time 2h 41m
Altitude 37000
Route GMH8Q GMH Q603 TESGA DCT ESATI DCT DETEV DCT DINKU DCT BESNI DCT GOMIG DCT BEDOX DCT LURID DCT DOBOT DCT VABEK UL603 OLOTA DCT RUGAS DCT PEREN UN128 RIKSO
Aircraft B38M/M-SDE1FGHILORVWXY/HB1

Departure

Time 2026-05-07 17:47
Airport Dortmund Airport (EDLW)

Arrival

Time 2026-05-07 20:28
Airport Adnan Menderes International Airport (LTBJ)
Time Latitude Longitude Altitude Speed Heading
2026-05-07 17:22 51.51472 7.61122 439 ft 0 kts 145°
2026-05-07 17:33 51.51472 7.61121 439 ft 0 kts 145°
2026-05-07 17:38 51.51481 7.61111 439 ft 3 kts 145°
2026-05-07 17:38 51.51497 7.61093 430 ft 3 kts 145°
2026-05-07 17:39 51.51513 7.61076 434 ft 3 kts 145°
2026-05-07 17:39 51.51529 7.61058 424 ft 3 kts 145°
2026-05-07 17:39 51.51534 7.61052 426 ft 0 kts 145°
2026-05-07 17:42 51.51533 7.61054 425 ft 1 kts 145°
2026-05-07 17:42 51.51524 7.61093 430 ft 5 kts 68°
2026-05-07 17:43 51.51568 7.61060 432 ft 16 kts 291°
2026-05-07 17:43 51.51537 7.60898 430 ft 18 kts 240°
2026-05-07 17:43 51.51486 7.60751 429 ft 16 kts 239°
2026-05-07 17:43 51.51429 7.60594 422 ft 16 kts 239°
2026-05-07 17:44 51.51390 7.60480 428 ft 12 kts 242°
2026-05-07 17:44 51.51371 7.60426 426 ft 0 kts 240°
2026-05-07 17:44 51.51369 7.60419 428 ft 1 kts 240°
2026-05-07 17:44 51.51365 7.60408 421 ft 1 kts 239°
2026-05-07 17:45 51.51360 7.60394 424 ft 2 kts 244°
2026-05-07 17:45 51.51357 7.60376 432 ft 2 kts 256°
2026-05-07 17:45 51.51356 7.60348 427 ft 2 kts 281°
2026-05-07 17:45 51.51370 7.60311 427 ft 5 kts 303°
2026-05-07 17:46 51.51418 7.60255 432 ft 13 kts 329°
2026-05-07 17:46 51.51495 7.60264 428 ft 9 kts 62°
2026-05-07 17:46 51.51571 7.60483 422 ft 53 kts 59°
2026-05-07 17:46 51.51878 7.61354 420 ft 123 kts 61°
2026-05-07 17:47 51.52398 7.62771 536 ft 163 kts 58°
2026-05-07 17:47 51.53020 7.64402 1014 ft 175 kts 58°
2026-05-07 17:47 51.53632 7.66140 1726 ft 183 kts 63°
2026-05-07 17:47 51.54244 7.67958 2538 ft 189 kts 61°
2026-05-07 17:48 51.54898 7.69863 3159 ft 208 kts 60°
2026-05-07 17:48 51.55640 7.71991 3826 ft 228 kts 59°
2026-05-07 17:48 51.56185 7.74513 4543 ft 247 kts 85°
2026-05-07 17:48 51.55849 7.77200 5578 ft 252 kts 116°
2026-05-07 17:49 51.54672 7.79288 6348 ft 266 kts 149°
2026-05-07 17:49 51.52834 7.80090 6977 ft 282 kts 184°
2026-05-07 17:49 51.50986 7.79188 7959 ft 277 kts 207°
2026-05-07 17:49 51.49202 7.77990 8957 ft 281 kts 202°
2026-05-07 17:50 51.47348 7.76869 9870 ft 286 kts 202°
2026-05-07 17:50 51.45474 7.75746 10698 ft 292 kts 201°
2026-05-07 17:50 51.43445 7.74991 11203 ft 311 kts 181°
2026-05-07 17:50 51.41277 7.75607 11763 ft 326 kts 161°
2026-05-07 17:51 51.39103 7.76847 12360 ft 337 kts 162°
2026-05-07 17:51 51.36878 7.78088 13274 ft 337 kts 162°
2026-05-07 17:51 51.34658 7.79332 14021 ft 343 kts 162°
2026-05-07 17:51 51.32430 7.80584 14727 ft 346 kts 162°
2026-05-07 17:52 51.30119 7.81883 15418 ft 350 kts 162°
2026-05-07 17:52 51.27842 7.83161 16090 ft 353 kts 162°
2026-05-07 17:52 51.25480 7.84486 16772 ft 357 kts 162°
2026-05-07 17:52 51.23156 7.85788 17436 ft 360 kts 162°
2026-05-07 17:53 51.20781 7.87119 18074 ft 364 kts 162°
2026-05-07 17:53 51.18348 7.88479 18685 ft 367 kts 162°
2026-05-07 17:53 51.16056 7.90201 19069 ft 373 kts 149°
2026-05-07 17:53 51.13883 7.92444 19054 ft 371 kts 149°
2026-05-07 17:54 51.11709 7.94657 19069 ft 371 kts 149°
2026-05-07 17:54 51.09534 7.96870 19067 ft 371 kts 149°
2026-05-07 17:54 51.07361 7.99080 19060 ft 371 kts 149°
2026-05-07 17:54 51.05182 8.01294 19058 ft 371 kts 149°
2026-05-07 17:55 51.03009 8.03499 19055 ft 371 kts 149°
2026-05-07 17:55 51.00832 8.05704 19056 ft 371 kts 149°
2026-05-07 17:55 50.98655 8.07904 19052 ft 371 kts 149°
2026-05-07 17:55 50.96477 8.10104 19054 ft 371 kts 149°
2026-05-07 17:56 50.94298 8.12303 19060 ft 373 kts 149°
2026-05-07 17:56 50.92118 8.14499 19709 ft 370 kts 149°
2026-05-07 17:56 50.89935 8.16697 20192 ft 376 kts 149°
2026-05-07 17:56 50.87708 8.18936 20673 ft 380 kts 149°
2026-05-07 17:57 50.85476 8.21178 21266 ft 382 kts 149°
2026-05-07 17:57 50.83953 8.22705 21572 ft 385 kts 149°
2026-05-07 17:57 50.80943 8.25721 22286 ft 388 kts 149°
2026-05-07 17:57 50.78654 8.28013 22802 ft 391 kts 149°
2026-05-07 17:58 50.76343 8.30323 23311 ft 395 kts 149°
2026-05-07 17:58 50.74015 8.32647 23771 ft 398 kts 149°
2026-05-07 17:58 50.71666 8.34990 24187 ft 400 kts 149°
2026-05-07 17:58 50.69307 8.37339 24621 ft 402 kts 149°
2026-05-07 17:59 50.67032 8.39603 25010 ft 405 kts 149°
2026-05-07 17:59 50.64642 8.41978 25404 ft 408 kts 149°
2026-05-07 17:59 50.62234 8.44368 25806 ft 410 kts 149°
2026-05-07 17:59 50.59817 8.46764 26180 ft 413 kts 149°
2026-05-07 18:00 50.57377 8.49179 26578 ft 415 kts 149°
2026-05-07 18:00 50.54926 8.51603 26945 ft 417 kts 149°
2026-05-07 18:00 50.52474 8.54072 27318 ft 420 kts 144°
2026-05-07 18:00 50.50286 8.57135 27703 ft 422 kts 135°
2026-05-07 18:01 50.48172 8.60364 28032 ft 425 kts 137°
2026-05-07 18:01 50.46024 8.63575 28378 ft 428 kts 137°
2026-05-07 18:01 50.43854 8.66793 28728 ft 430 kts 137°
2026-05-07 18:01 50.41671 8.70021 29068 ft 432 kts 137°
2026-05-07 18:02 50.37268 8.76512 29716 ft 437 kts 137°
2026-05-07 18:02 50.35046 8.79781 30040 ft 439 kts 137°
2026-05-07 18:02 50.32812 8.83063 30322 ft 441 kts 137°
2026-05-07 18:03 50.30567 8.86356 30579 ft 443 kts 137°
2026-05-07 18:03 50.28313 8.89658 30858 ft 445 kts 137°
2026-05-07 18:03 50.26812 8.91856 31029 ft 446 kts 137°
2026-05-07 18:03 50.24541 8.95176 31284 ft 449 kts 137°
2026-05-07 18:04 50.22256 8.98511 31537 ft 450 kts 137°
2026-05-07 18:04 50.19961 9.01856 31791 ft 452 kts 137°
2026-05-07 18:04 50.17656 9.05212 32043 ft 454 kts 137°
2026-05-07 18:04 50.15340 9.08579 32294 ft 456 kts 137°
2026-05-07 18:05 50.13013 9.11958 32525 ft 458 kts 137°
2026-05-07 18:05 50.10674 9.15348 32760 ft 460 kts 138°
2026-05-07 18:05 50.08325 9.18750 33023 ft 461 kts 138°
2026-05-07 18:05 50.05974 9.22148 33353 ft 461 kts 138°
2026-05-07 18:06 50.03625 9.25540 33683 ft 461 kts 138°
2026-05-07 18:06 50.01279 9.28923 33996 ft 460 kts 138°
2026-05-07 18:06 49.98927 9.32308 34264 ft 460 kts 138°
2026-05-07 18:06 49.96579 9.35683 34515 ft 460 kts 138°
2026-05-07 18:07 49.94228 9.39059 34747 ft 460 kts 138°
2026-05-07 18:07 49.91876 9.42430 34984 ft 460 kts 139°
2026-05-07 18:07 49.89521 9.45803 35215 ft 460 kts 139°
2026-05-07 18:07 49.87169 9.49164 35452 ft 460 kts 139°
2026-05-07 18:08 49.84813 9.52528 35680 ft 460 kts 139°
2026-05-07 18:08 49.82458 9.55887 35901 ft 460 kts 139°
2026-05-07 18:08 49.80100 9.59243 36117 ft 460 kts 139°
2026-05-07 18:08 49.77742 9.62596 36327 ft 460 kts 139°
2026-05-07 18:09 49.75382 9.65947 36549 ft 460 kts 139°
2026-05-07 18:09 49.73024 9.69290 36751 ft 460 kts 139°
2026-05-07 18:09 49.70662 9.72634 36940 ft 460 kts 139°
2026-05-07 18:09 49.68298 9.75976 37046 ft 461 kts 139°
2026-05-07 18:10 49.65937 9.79310 37041 ft 460 kts 140°
2026-05-07 18:10 49.61247 9.85919 37044 ft 460 kts 140°
2026-05-07 18:11 49.56523 9.92556 37050 ft 460 kts 140°
2026-05-07 18:11 49.51791 9.99187 37045 ft 460 kts 140°
2026-05-07 18:12 49.47055 10.05807 37046 ft 460 kts 140°
2026-05-07 18:12 49.42312 10.12417 37048 ft 460 kts 140°
2026-05-07 18:13 49.37563 10.19017 37052 ft 461 kts 140°
2026-05-07 18:13 49.32813 10.25602 37056 ft 461 kts 140°
2026-05-07 18:14 49.28052 10.32183 37069 ft 461 kts 140°
2026-05-07 18:14 49.23322 10.38813 37066 ft 462 kts 137°
2026-05-07 18:15 49.18739 10.45689 37062 ft 462 kts 138°
2026-05-07 18:15 49.14158 10.52487 37071 ft 462 kts 138°
2026-05-07 18:16 49.09541 10.59315 37078 ft 462 kts 138°
2026-05-07 18:16 49.04913 10.66141 37083 ft 463 kts 138°
2026-05-07 18:17 49.00285 10.72948 37086 ft 463 kts 138°
2026-05-07 18:17 48.95645 10.79752 37081 ft 463 kts 139°
2026-05-07 18:18 48.91004 10.86542 37069 ft 463 kts 139°
2026-05-07 18:18 48.86353 10.93326 37057 ft 463 kts 139°
2026-05-07 18:19 48.81699 11.00097 37049 ft 463 kts 139°
2026-05-07 18:19 48.77042 11.06855 37043 ft 464 kts 139°
2026-05-07 18:20 48.72376 11.13606 37045 ft 464 kts 139°
2026-05-07 18:20 48.67707 11.20347 37048 ft 464 kts 139°
2026-05-07 18:21 48.63550 11.27767 37043 ft 467 kts 119°
2026-05-07 18:21 48.60523 11.36505 37053 ft 471 kts 120°
2026-05-07 18:22 48.57496 11.45281 37047 ft 471 kts 119°
2026-05-07 18:22 48.54482 11.54054 37046 ft 471 kts 119°
2026-05-07 18:23 48.51461 11.62820 37044 ft 471 kts 120°
2026-05-07 18:23 48.48434 11.71577 37044 ft 471 kts 120°
2026-05-07 18:24 48.45397 11.80332 37045 ft 471 kts 120°
2026-05-07 18:24 48.42357 11.89070 37046 ft 471 kts 120°
2026-05-07 18:25 48.39304 11.97809 37050 ft 471 kts 120°
2026-05-07 18:25 48.36247 12.06537 37040 ft 471 kts 120°
2026-05-07 18:26 48.33186 12.15244 37047 ft 471 kts 120°
2026-05-07 18:26 48.30114 12.23951 37048 ft 471 kts 120°
2026-05-07 18:27 48.27038 12.32644 37045 ft 471 kts 120°
2026-05-07 18:27 48.23953 12.41329 37047 ft 471 kts 120°
2026-05-07 18:28 48.20866 12.49994 37046 ft 471 kts 121°
2026-05-07 18:28 48.17771 12.58656 37048 ft 471 kts 121°
2026-05-07 18:29 48.14670 12.67307 37046 ft 471 kts 121°
2026-05-07 18:29 48.12849 12.71340 37043 ft 464 kts 134°
2026-05-07 18:29 48.10735 12.74999 37038 ft 466 kts 133°
2026-05-07 18:30 48.06589 12.82381 37046 ft 467 kts 133°
2026-05-07 18:30 48.02362 12.89836 37044 ft 467 kts 133°
2026-05-07 18:31 47.98186 12.97175 37046 ft 467 kts 134°
2026-05-07 18:31 47.93978 13.04550 37046 ft 467 kts 134°
2026-05-07 18:32 47.89767 13.11910 37046 ft 467 kts 134°
2026-05-07 18:32 47.85551 13.19259 37046 ft 467 kts 134°
2026-05-07 18:33 47.81330 13.26596 37051 ft 467 kts 134°
2026-05-07 18:33 47.77104 13.33922 37045 ft 467 kts 134°
2026-05-07 18:34 47.72877 13.41230 37050 ft 466 kts 134°
2026-05-07 18:34 47.68644 13.48528 37053 ft 466 kts 134°
2026-05-07 18:35 47.64403 13.55820 37054 ft 467 kts 134°
2026-05-07 18:35 47.60153 13.63109 37077 ft 468 kts 134°
2026-05-07 18:36 47.55896 13.70388 37056 ft 467 kts 135°
2026-05-07 18:36 47.51636 13.77655 37055 ft 467 kts 135°
2026-05-07 18:37 47.47378 13.84896 37058 ft 467 kts 135°
2026-05-07 18:37 47.43135 13.92095 37063 ft 467 kts 135°
2026-05-07 18:38 47.38862 13.99324 37077 ft 467 kts 135°
2026-05-07 18:38 47.34583 14.06543 37060 ft 467 kts 135°
2026-05-07 18:39 47.30299 14.13754 37090 ft 468 kts 135°
2026-05-07 18:39 47.26009 14.20955 37074 ft 467 kts 135°
2026-05-07 18:40 47.21721 14.28130 37060 ft 467 kts 135°
2026-05-07 18:40 47.17429 14.35296 37055 ft 467 kts 136°
2026-05-07 18:41 47.13132 14.42449 37036 ft 467 kts 136°
2026-05-07 18:41 47.08831 14.49592 37048 ft 467 kts 136°
2026-05-07 18:42 47.04523 14.56726 37043 ft 467 kts 136°
2026-05-07 18:42 47.00215 14.63841 37042 ft 467 kts 136°
2026-05-07 18:43 46.95898 14.70953 37036 ft 467 kts 136°
2026-05-07 18:43 46.91579 14.78050 37030 ft 467 kts 136°
2026-05-07 18:44 46.87261 14.85127 37020 ft 467 kts 136°
2026-05-07 18:44 46.82940 14.92190 37014 ft 465 kts 136°
2026-05-07 18:45 46.78618 14.99235 36999 ft 466 kts 136°
2026-05-07 18:45 46.74286 15.06279 37009 ft 466 kts 137°
2026-05-07 18:46 46.69955 15.13306 37006 ft 466 kts 137°
2026-05-07 18:46 46.65616 15.20323 37004 ft 466 kts 137°
2026-05-07 18:47 46.61300 15.27285 36990 ft 466 kts 137°
2026-05-07 18:47 46.56957 15.34274 36998 ft 465 kts 137°
2026-05-07 18:48 46.52612 15.41248 36993 ft 466 kts 137°
2026-05-07 18:48 46.48256 15.48223 36995 ft 466 kts 138°
2026-05-07 18:49 46.43895 15.55188 36991 ft 466 kts 138°
2026-05-07 18:49 46.40773 15.60165 36990 ft 465 kts 138°
2026-05-07 18:50 46.36409 15.67108 36989 ft 466 kts 138°
2026-05-07 18:50 46.32042 15.74039 36991 ft 466 kts 138°
2026-05-07 18:51 46.28383 15.79833 36990 ft 465 kts 138°
2026-05-07 18:51 46.23874 15.86402 37000 ft 463 kts 141°
2026-05-07 18:52 46.19257 15.92974 36992 ft 463 kts 141°
2026-05-07 18:52 46.14678 15.99508 36997 ft 463 kts 141°
2026-05-07 18:53 46.10101 16.06024 36996 ft 462 kts 141°
2026-05-07 18:53 46.05523 16.12525 36995 ft 462 kts 141°
2026-05-07 18:54 46.00947 16.19010 36999 ft 462 kts 141°
2026-05-07 18:54 45.96397 16.25440 37000 ft 461 kts 141°
2026-05-07 18:55 45.91819 16.31896 37000 ft 461 kts 141°
2026-05-07 18:55 45.87242 16.38333 37001 ft 461 kts 141°
2026-05-07 18:56 45.82660 16.44762 37003 ft 461 kts 141°
2026-05-07 18:56 45.78076 16.51178 37012 ft 461 kts 141°
2026-05-07 18:57 45.73488 16.57584 37016 ft 461 kts 141°
2026-05-07 18:57 45.68891 16.63986 37015 ft 461 kts 141°
2026-05-07 18:58 45.64295 16.70373 37014 ft 461 kts 142°
2026-05-07 18:58 45.59694 16.76751 37015 ft 461 kts 142°
2026-05-07 18:59 45.55091 16.83118 37015 ft 461 kts 142°
2026-05-07 18:59 45.50476 16.89483 37020 ft 461 kts 142°
2026-05-07 19:00 45.45855 16.95842 37017 ft 462 kts 142°
2026-05-07 19:00 45.41229 17.02194 37020 ft 462 kts 142°
2026-05-07 19:01 45.36591 17.08546 37024 ft 463 kts 142°
2026-05-07 19:01 45.31949 17.14888 37024 ft 463 kts 142°
2026-05-07 19:02 45.27300 17.21225 37019 ft 463 kts 142°
2026-05-07 19:02 45.22645 17.27557 37025 ft 464 kts 142°
2026-05-07 19:03 45.17986 17.33880 37022 ft 464 kts 142°
2026-05-07 19:03 45.13337 17.40220 37022 ft 465 kts 141°
2026-05-07 19:04 45.08748 17.46677 37020 ft 465 kts 141°
2026-05-07 19:04 45.04151 17.53110 37023 ft 465 kts 141°
2026-05-07 19:05 44.99546 17.59538 37021 ft 465 kts 141°
2026-05-07 19:05 44.94963 17.65918 37025 ft 466 kts 141°
2026-05-07 19:06 44.90348 17.72328 37031 ft 465 kts 141°
2026-05-07 19:06 44.83415 17.81931 37036 ft 466 kts 141°
2026-05-07 19:07 44.78758 17.88362 37020 ft 466 kts 141°
2026-05-07 19:07 44.74466 17.95184 37026 ft 470 kts 136°
2026-05-07 19:08 44.70181 18.02121 37031 ft 470 kts 136°
2026-05-07 19:08 44.65871 18.09026 37028 ft 470 kts 136°
2026-05-07 19:09 44.61556 18.15917 37035 ft 470 kts 136°
2026-05-07 19:09 44.57236 18.22800 37028 ft 470 kts 136°
2026-05-07 19:10 44.52911 18.29673 37033 ft 470 kts 136°
2026-05-07 19:10 44.48581 18.36538 37033 ft 470 kts 136°
2026-05-07 19:11 44.44244 18.43398 37043 ft 471 kts 136°
2026-05-07 19:11 44.39897 18.50256 37042 ft 471 kts 136°
2026-05-07 19:12 44.35545 18.57106 37042 ft 471 kts 136°
2026-05-07 19:12 44.31189 18.63946 37035 ft 471 kts 136°
2026-05-07 19:13 44.26821 18.70787 37038 ft 472 kts 137°
2026-05-07 19:13 44.22445 18.77624 37052 ft 473 kts 137°
2026-05-07 19:14 44.18231 18.84193 37046 ft 472 kts 137°
2026-05-07 19:14 44.13849 18.91008 37055 ft 473 kts 137°
2026-05-07 19:15 44.09454 18.97827 37050 ft 474 kts 137°
2026-05-07 19:15 44.05052 19.04640 37055 ft 474 kts 137°
2026-05-07 19:16 44.00672 19.11402 37053 ft 474 kts 137°
2026-05-07 19:16 43.96250 19.18213 37051 ft 475 kts 137°
2026-05-07 19:17 43.91824 19.25015 37062 ft 475 kts 137°
2026-05-07 19:17 43.87388 19.31814 37053 ft 476 kts 137°
2026-05-07 19:18 43.82948 19.38605 37061 ft 476 kts 137°
2026-05-07 19:18 43.78494 19.45399 37064 ft 477 kts 137°
2026-05-07 19:19 43.74034 19.52186 37064 ft 477 kts 137°
2026-05-07 19:19 43.69572 19.58961 37063 ft 477 kts 137°
2026-05-07 19:20 43.65101 19.65733 37069 ft 477 kts 137°
2026-05-07 19:20 43.60622 19.72501 37069 ft 477 kts 137°
2026-05-07 19:21 43.56136 19.79264 37074 ft 478 kts 137°
2026-05-07 19:21 43.51639 19.86027 37077 ft 479 kts 137°
2026-05-07 19:22 43.47135 19.92784 37078 ft 479 kts 137°
2026-05-07 19:22 43.42621 19.99539 37079 ft 479 kts 137°
2026-05-07 19:23 43.38101 20.06289 37089 ft 480 kts 137°
2026-05-07 19:23 43.33573 20.13035 37086 ft 481 kts 137°
2026-05-07 19:24 43.29030 20.19787 37092 ft 482 kts 137°
2026-05-07 19:24 43.24476 20.26539 37085 ft 483 kts 137°
2026-05-07 19:25 43.19906 20.33298 37103 ft 483 kts 137°
2026-05-07 19:25 43.15338 20.40041 37087 ft 483 kts 137°
2026-05-07 19:26 43.10761 20.46784 37119 ft 484 kts 138°
2026-05-07 19:26 43.06172 20.53528 37104 ft 485 kts 138°
2026-05-07 19:27 43.01567 20.60279 37100 ft 486 kts 138°
2026-05-07 19:27 42.96720 20.66654 37067 ft 484 kts 142°
2026-05-07 19:28 42.91837 20.73020 37099 ft 486 kts 141°
2026-05-07 19:28 42.86950 20.79406 37101 ft 487 kts 142°
2026-05-07 19:29 42.82051 20.85795 37096 ft 488 kts 142°
2026-05-07 19:29 42.77139 20.92186 37105 ft 489 kts 142°
2026-05-07 19:30 42.72209 20.98587 37102 ft 490 kts 142°
2026-05-07 19:30 42.67294 21.04952 37104 ft 492 kts 142°
2026-05-07 19:31 42.62322 21.11377 37110 ft 494 kts 142°
2026-05-07 19:31 42.57327 21.17816 37109 ft 496 kts 142°
2026-05-07 19:32 42.52316 21.24261 37109 ft 497 kts 142°
2026-05-07 19:32 42.47289 21.30712 37105 ft 498 kts 142°
2026-05-07 19:33 42.42250 21.37164 37105 ft 499 kts 143°
2026-05-07 19:33 42.37188 21.43628 37097 ft 501 kts 143°
2026-05-07 19:34 42.32106 21.50105 37096 ft 503 kts 143°
2026-05-07 19:34 42.27872 21.55491 37099 ft 504 kts 143°
2026-05-07 19:35 42.21941 21.63146 37109 ft 507 kts 141°
2026-05-07 19:35 42.17773 21.68710 37095 ft 508 kts 141°
2026-05-07 19:36 42.12726 21.75404 37096 ft 510 kts 141°
2026-05-07 19:36 42.07659 21.82105 37103 ft 512 kts 142°
2026-05-07 19:37 42.02565 21.88827 37096 ft 513 kts 142°
2026-05-07 19:37 41.97451 21.95560 37096 ft 515 kts 142°
2026-05-07 19:38 41.92320 22.02299 37093 ft 516 kts 142°
2026-05-07 19:38 41.87170 22.09046 37104 ft 518 kts 142°
2026-05-07 19:39 41.82007 22.15795 37094 ft 519 kts 142°
2026-05-07 19:39 41.76856 22.22512 37109 ft 521 kts 142°
2026-05-07 19:40 41.71656 22.29277 37109 ft 522 kts 142°
2026-05-07 19:40 41.66433 22.36056 37104 ft 524 kts 142°
2026-05-07 19:41 41.61195 22.42837 37107 ft 525 kts 142°
2026-05-07 19:41 41.55942 22.49622 37102 ft 526 kts 142°
2026-05-07 19:42 41.50670 22.56416 37115 ft 527 kts 142°
2026-05-07 19:42 41.45390 22.63203 37128 ft 528 kts 142°
2026-05-07 19:43 41.40097 22.69991 37109 ft 529 kts 142°
2026-05-07 19:43 41.34794 22.76781 37095 ft 529 kts 142°
2026-05-07 19:44 41.29893 22.84148 37136 ft 534 kts 134°
2026-05-07 19:44 41.25186 22.91811 37107 ft 536 kts 133°
2026-05-07 19:45 41.20476 22.99478 37101 ft 535 kts 133°
2026-05-07 19:45 41.15759 23.07140 37099 ft 536 kts 133°
2026-05-07 19:46 41.11030 23.14799 37102 ft 537 kts 134°
2026-05-07 19:46 41.06301 23.22440 37124 ft 538 kts 133°
2026-05-07 19:47 41.01555 23.30088 37101 ft 537 kts 133°
2026-05-07 19:47 40.96800 23.37732 37102 ft 538 kts 133°
2026-05-07 19:48 40.92065 23.45325 37099 ft 539 kts 133°
2026-05-07 19:48 40.87288 23.52967 37100 ft 539 kts 133°
2026-05-07 19:49 40.82505 23.60598 37102 ft 539 kts 133°
2026-05-07 19:49 40.77713 23.68225 37095 ft 540 kts 133°
2026-05-07 19:50 40.72918 23.75838 37100 ft 540 kts 133°
2026-05-07 19:50 40.68105 23.83460 37096 ft 541 kts 133°
2026-05-07 19:51 40.63287 23.91075 37101 ft 541 kts 133°
2026-05-07 19:51 40.58620 23.98848 37104 ft 543 kts 127°
2026-05-07 19:52 40.54310 24.07013 37101 ft 544 kts 126°
2026-05-07 19:52 40.50015 24.15190 37102 ft 544 kts 126°
2026-05-07 19:53 40.45712 24.23364 37103 ft 544 kts 126°
2026-05-07 19:53 40.41401 24.31532 37106 ft 544 kts 126°
2026-05-07 19:54 40.37113 24.39635 37103 ft 545 kts 126°
2026-05-07 19:54 40.32786 24.47789 37107 ft 545 kts 126°
2026-05-07 19:55 40.28456 24.55929 37104 ft 545 kts 126°
2026-05-07 19:55 40.24117 24.64064 37108 ft 545 kts 126°
2026-05-07 19:56 40.19771 24.72191 37108 ft 545 kts 126°
2026-05-07 19:56 40.15420 24.80308 37112 ft 545 kts 126°
2026-05-07 19:57 40.11064 24.88410 37109 ft 545 kts 126°
2026-05-07 19:57 40.06703 24.96504 37108 ft 545 kts 126°
2026-05-07 19:58 40.02335 25.04589 37107 ft 545 kts 126°
2026-05-07 19:58 39.97989 25.12613 37103 ft 545 kts 126°
2026-05-07 19:59 39.93611 25.20680 37098 ft 545 kts 126°
2026-05-07 19:59 39.91207 25.24474 37089 ft 542 kts 140°
2026-05-07 19:59 39.88375 25.27701 37101 ft 541 kts 141°
2026-05-07 20:00 39.82725 25.34213 37105 ft 545 kts 142°
2026-05-07 20:00 39.76978 25.40737 36853 ft 546 kts 142°
2026-05-07 20:01 39.74137 25.43955 36639 ft 535 kts 142°
2026-05-07 20:01 39.71398 25.47052 37217 ft 509 kts 142°
2026-05-07 20:01 39.68827 25.49960 38695 ft 471 kts 143°
2026-05-07 20:01 39.66428 25.52669 39622 ft 445 kts 142°
2026-05-07 20:02 39.64122 25.55267 39931 ft 436 kts 142°
2026-05-07 20:02 39.61814 25.57865 39574 ft 446 kts 142°
2026-05-07 20:02 39.59419 25.60557 38449 ft 466 kts 142°
2026-05-07 20:02 39.56924 25.63365 37341 ft 481 kts 142°
2026-05-07 20:03 39.54388 25.66214 36665 ft 483 kts 142°
2026-05-07 20:03 39.51854 25.69059 36195 ft 481 kts 142°
2026-05-07 20:03 39.49332 25.71886 35766 ft 477 kts 142°
2026-05-07 20:03 39.46819 25.74700 35364 ft 483 kts 142°
2026-05-07 20:04 39.44248 25.77578 34902 ft 492 kts 142°
2026-05-07 20:04 39.41652 25.80478 34484 ft 495 kts 142°
2026-05-07 20:04 39.39051 25.83383 34066 ft 493 kts 142°
2026-05-07 20:04 39.36464 25.86269 33605 ft 489 kts 142°
2026-05-07 20:05 39.33898 25.89129 33153 ft 485 kts 142°
2026-05-07 20:05 39.31352 25.91965 32711 ft 481 kts 141°
2026-05-07 20:05 39.28817 25.94747 32284 ft 476 kts 143°
2026-05-07 20:05 39.26282 25.97463 31868 ft 472 kts 142°
2026-05-07 20:06 39.23772 26.00160 31458 ft 467 kts 142°
2026-05-07 20:06 39.21288 26.02831 31061 ft 462 kts 142°
2026-05-07 20:06 39.18828 26.05473 30668 ft 458 kts 142°
2026-05-07 20:06 39.16397 26.08083 30282 ft 453 kts 142°
2026-05-07 20:07 39.13993 26.10661 29864 ft 447 kts 142°
2026-05-07 20:07 39.11617 26.13207 29409 ft 442 kts 142°
2026-05-07 20:07 39.09300 26.15687 29011 ft 436 kts 142°
2026-05-07 20:07 39.06977 26.18171 28604 ft 431 kts 142°
2026-05-07 20:08 39.04652 26.20655 28199 ft 426 kts 142°
2026-05-07 20:08 39.02416 26.23042 27811 ft 421 kts 142°
2026-05-07 20:08 39.00175 26.25434 27433 ft 416 kts 142°
2026-05-07 20:08 38.97962 26.27793 27062 ft 411 kts 142°
2026-05-07 20:09 38.95773 26.30123 26703 ft 406 kts 142°
2026-05-07 20:09 38.93613 26.32422 26350 ft 401 kts 142°
2026-05-07 20:09 38.91478 26.34692 26004 ft 396 kts 142°
2026-05-07 20:10 38.87281 26.39149 25341 ft 387 kts 142°
2026-05-07 20:10 38.85222 26.41334 25018 ft 382 kts 142°
2026-05-07 20:10 38.83200 26.43511 24706 ft 377 kts 140°
2026-05-07 20:10 38.81240 26.45721 24397 ft 372 kts 140°
2026-05-07 20:11 38.79305 26.47893 24102 ft 368 kts 141°
2026-05-07 20:11 38.77390 26.50035 23815 ft 363 kts 141°
2026-05-07 20:11 38.75498 26.52148 23678 ft 360 kts 141°
2026-05-07 20:11 38.73596 26.54270 23647 ft 366 kts 141°
2026-05-07 20:12 38.71667 26.56422 23639 ft 369 kts 141°
2026-05-07 20:12 38.69728 26.58582 23640 ft 370 kts 141°
2026-05-07 20:12 38.67788 26.60742 23644 ft 370 kts 141°
2026-05-07 20:12 38.65847 26.62901 23642 ft 370 kts 140°
2026-05-07 20:13 38.63877 26.65016 23633 ft 368 kts 148°
2026-05-07 20:13 38.61600 26.66396 23637 ft 360 kts 168°
2026-05-07 20:13 38.59165 26.67188 23639 ft 362 kts 168°
2026-05-07 20:13 38.56725 26.67990 23648 ft 362 kts 169°
2026-05-07 20:14 38.54279 26.68772 23641 ft 362 kts 169°
2026-05-07 20:14 38.51832 26.69540 23647 ft 363 kts 169°
2026-05-07 20:14 38.49380 26.70302 23645 ft 363 kts 169°
2026-05-07 20:14 38.46906 26.71066 22625 ft 375 kts 169°
2026-05-07 20:15 38.44331 26.71860 21573 ft 383 kts 169°
2026-05-07 20:15 38.41784 26.72645 20803 ft 381 kts 169°
2026-05-07 20:15 38.39210 26.73437 19917 ft 382 kts 169°
2026-05-07 20:15 38.36605 26.74237 18871 ft 388 kts 169°
2026-05-07 20:16 38.33919 26.75063 17659 ft 395 kts 169°
2026-05-07 20:16 38.31265 26.75878 16519 ft 399 kts 168°
2026-05-07 20:16 38.28561 26.76707 15405 ft 400 kts 168°
2026-05-07 20:16 38.25851 26.77538 14332 ft 401 kts 168°
2026-05-07 20:17 38.23137 26.78376 13141 ft 401 kts 166°
2026-05-07 20:17 38.20639 26.79889 12260 ft 395 kts 142°
2026-05-07 20:17 38.18893 26.82447 11796 ft 376 kts 118°
2026-05-07 20:17 38.18057 26.85503 11235 ft 361 kts 97°
2026-05-07 20:18 38.18145 26.88604 10784 ft 344 kts 76°
2026-05-07 20:18 38.18674 26.91423 10831 ft 313 kts 75°
2026-05-07 20:18 38.19141 26.94010 10821 ft 293 kts 76°
2026-05-07 20:18 38.19603 26.96538 10260 ft 295 kts 76°
2026-05-07 20:19 38.20075 26.99078 9646 ft 295 kts 76°
2026-05-07 20:19 38.20544 27.01596 9130 ft 289 kts 77°
2026-05-07 20:19 38.20636 27.04099 8595 ft 284 kts 102°
2026-05-07 20:19 38.19818 27.06314 8182 ft 274 kts 131°
2026-05-07 20:20 38.18363 27.07760 7883 ft 261 kts 156°
2026-05-07 20:20 38.16681 27.08452 7603 ft 250 kts 165°
2026-05-07 20:20 38.14993 27.09022 7317 ft 255 kts 166°
2026-05-07 20:20 38.13258 27.09582 6998 ft 259 kts 166°
2026-05-07 20:21 38.11503 27.10134 6684 ft 260 kts 166°
2026-05-07 20:21 38.09747 27.10677 6390 ft 258 kts 167°
2026-05-07 20:21 38.08031 27.11201 6241 ft 249 kts 167°
2026-05-07 20:21 38.06436 27.11893 6133 ft 237 kts 147°
2026-05-07 20:22 38.05345 27.13321 6153 ft 219 kts 118°
2026-05-07 20:22 38.04925 27.15088 6073 ft 203 kts 93°
2026-05-07 20:22 38.05087 27.16817 5810 ft 196 kts 72°
2026-05-07 20:22 38.05799 27.18263 5392 ft 196 kts 39°
2026-05-07 20:23 38.07016 27.18970 5072 ft 192 kts 11°
2026-05-07 20:23 38.08321 27.19266 4768 ft 190 kts
2026-05-07 20:23 38.09636 27.19536 4350 ft 194 kts
2026-05-07 20:23 38.11005 27.19625 3885 ft 200 kts 359°
2026-05-07 20:24 38.12415 27.19591 3453 ft 204 kts 356°
2026-05-07 20:24 38.13765 27.19477 3145 ft 181 kts 353°
2026-05-07 20:24 38.14925 27.19323 3003 ft 164 kts 351°
2026-05-07 20:24 38.16038 27.19126 2845 ft 160 kts 348°
2026-05-07 20:25 38.16782 27.18983 2733 ft 160 kts 349°
2026-05-07 20:25 38.17875 27.18803 2493 ft 154 kts 352°
2026-05-07 20:25 38.18882 27.18633 2245 ft 141 kts 346°
2026-05-07 20:25 38.20114 27.18224 1933 ft 140 kts 343°
2026-05-07 20:26 38.21078 27.17937 1816 ft 144 kts 344°
2026-05-07 20:26 38.22063 27.17651 1698 ft 146 kts 346°
2026-05-07 20:26 38.22730 27.17450 1518 ft 145 kts 345°
2026-05-07 20:26 38.23703 27.17141 1318 ft 143 kts 345°
2026-05-07 20:27 38.24677 27.16847 1101 ft 143 kts 346°
2026-05-07 20:27 38.25638 27.16559 901 ft 142 kts 346°
2026-05-07 20:27 38.26597 27.16275 719 ft 141 kts 346°
2026-05-07 20:27 38.27536 27.15982 519 ft 141 kts 346°
2026-05-07 20:28 38.28478 27.15712 420 ft 127 kts 347°
2026-05-07 20:28 38.29148 27.15507 420 ft 68 kts 347°
2026-05-07 20:28 38.29530 27.15389 418 ft 51 kts 347°
2026-05-07 20:28 38.29809 27.15307 418 ft 33 kts 346°
2026-05-07 20:29 38.29973 27.15254 413 ft 10 kts 334°
2026-05-07 20:29 38.29983 27.15173 418 ft 12 kts 256°
2026-05-07 20:29 38.29956 27.15038 413 ft 18 kts 256°
2026-05-07 20:29 38.29919 27.14957 414 ft 8 kts 185°
2026-05-07 20:30 38.29873 27.14972 410 ft 7 kts 169°
2026-05-07 20:30 38.29814 27.14986 410 ft 10 kts 165°
2026-05-07 20:30 38.29739 27.15010 413 ft 12 kts 167°
2026-05-07 20:30 38.29648 27.15037 409 ft 15 kts 167°
2026-05-07 20:31 38.29556 27.15049 414 ft 7 kts 221°
2026-05-07 20:31 38.29540 27.15003 414 ft 5 kts 256°
2026-05-07 20:31 38.29538 27.14994 414 ft 0 kts 256°
2026-05-07 20:33 51.51472 7.61122 440 ft 0 kts 145°
2026-05-07 20:36 38.16285 27.19078 2801 ft 160 kts 346°
2026-05-07 20:36 38.17383 27.18873 2589 ft 159 kts 348°
2026-05-07 20:36 38.18442 27.18727 2382 ft 145 kts 350°
2026-05-07 20:37 38.16206 27.19093 2816 ft 160 kts 348°
2026-05-07 20:37 38.17305 27.18886 2610 ft 159 kts 350°
2026-05-07 20:37 38.18370 27.18738 2402 ft 146 kts 351°
2026-05-07 20:37 38.19334 27.18507 2095 ft 137 kts 345°
2026-05-07 20:38 38.20259 27.18178 1904 ft 140 kts 344°
2026-05-07 20:38 38.21227 27.17890 1803 ft 144 kts 344°
2026-05-07 20:38 38.19593 27.18418 2020 ft 137 kts 341°
2026-05-07 20:38 38.20530 27.18101 1872 ft 142 kts 345°
2026-05-07 20:39 38.21504 27.17807 1794 ft 145 kts 345°
2026-05-07 20:39 38.22493 27.17523 1583 ft 145 kts 345°
2026-05-07 20:39 38.23469 27.17215 1351 ft 144 kts 345°
2026-05-07 20:39 38.24441 27.16917 1163 ft 144 kts 346°
2026-05-07 20:40 38.25406 27.16628 939 ft 142 kts 346°
2026-05-07 20:40 38.26366 27.16344 761 ft 141 kts 346°
2026-05-07 20:40 38.27320 27.16048 561 ft 140 kts 345°
2026-05-07 20:40 38.28264 27.15772 422 ft 133 kts 346°
2026-05-07 20:41 38.29032 27.15542 419 ft 82 kts 346°
2026-05-07 20:41 38.29337 27.15448 419 ft 50 kts 346°
2026-05-07 20:41 38.28344 27.15749 421 ft 131 kts 347°
2026-05-07 20:41 38.25775 27.16519 878 ft 142 kts 346°
2026-05-07 20:42 38.26734 27.16233 690 ft 141 kts 345°
2026-05-07 20:42 38.27685 27.15937 484 ft 141 kts 346°
2026-05-07 20:42 38.28602 27.15678 416 ft 123 kts 347°
2026-05-07 20:42 38.29220 27.15485 414 ft 67 kts 346°
2026-05-07 20:43 38.29585 27.15373 417 ft 51 kts 347°
2026-05-07 20:43 38.21562 27.17791 1788 ft 145 kts 345°
2026-05-07 20:43 38.22550 27.17505 1568 ft 145 kts 345°
2026-05-07 20:43 38.23526 27.17197 1341 ft 144 kts 345°
2026-05-07 20:44 38.24499 27.16900 1148 ft 144 kts 346°